NT9G Weather Reports


time (UTC)temp
C
wind
direction
speed
KPH
gust
KPH
rain 1hr
cm
rain 24hr
cm
rain mn
cm
humidity
%
barometer
mb
20260906022816 25 0 0.0 0.0 0.00 0.00 0.00 77 1015.2
20260906022316 25 0 0.0 0.0 0.00 0.00 0.00 75 1015.2
20260906021816 25 0 0.0 0.0 0.00 0.00 0.00 73 1015.1
20260906021315 25 0 0.0 0.0 0.00 0.00 0.00 72 1015.2
20260906020815 26 0 0.0 0.0 0.00 0.00 0.00 72 1015.1
20260906020315 26 0 0.0 0.0 0.00 0.00 0.00 74 1015.1
20260906015817 25 0 0.0 0.0 0.00 0.00 0.00 77 1015.0
20260906015315 25 0 0.0 0.0 0.00 0.00 0.00 76 1014.9
20260906014814 26 0 0.0 0.0 0.00 0.00 0.00 71 1014.8
20260906014314 26 0 0.0 0.0 0.00 0.00 0.00 70 1014.7
20260906013814 26 0 0.0 0.0 0.00 0.00 0.00 68 1014.6
20260906013313 26 0 0.0 0.0 0.00 0.00 0.00 71 1014.6
20260906012815 26 0 0.0 0.0 0.00 0.00 0.00 74 1014.6
20260906012313 26 0 0.0 0.0 0.00 0.00 0.00 70 1014.5
20260906011812 26 0 0.0 0.0 0.00 0.00 0.00 68 1014.5
20260906011312 27 0 0.0 0.0 0.00 0.00 0.00 65 1014.4
20260906010812 27 0 0.0 0.0 0.00 0.00 0.00 67 1014.4
20260906010312 27 0 0.0 0.0 0.00 0.00 0.00 68 1014.4
20260906005811 27 0 0.0 0.0 0.00 0.00 0.00 65 1014.4
20260906005311 27 0 0.0 0.0 0.00 0.00 0.00 62 1014.3
20260906004811 28 0 0.0 0.0 0.00 0.00 0.00 62 1014.4
20260906004640 27 0 0.0 0.0 0.00 0.00 0.00 65 1014.4
20260906004310 27 0 0.0 0.0 0.00 0.00 0.00 65 1014.4
20260906003810 27 0 0.0 0.0 0.00 0.00 0.00 66 1014.3
20260906003309 27 0 0.0 0.0 0.00 0.00 0.00 64 1014.4
20260906002809 28 0 0.0 0.0 0.00 0.00 0.00 62 1014.4
20260906002309 28 0 0.0 0.0 0.00 0.00 0.00 65 1014.4
20260906001308 28 0 0.0 0.0 0.00 0.00 0.00 62 1014.4
20260906000808 29 0 0.0 0.0 0.00 0.00 0.00 60 1014.3
20260906000308 29 0 0.0 0.0 0.00 0.00 0.00 59 1014.3
20260906000039 29 0 0.0 0.0 0.00 0.00 0.00 61 1014.3
20260905235808 29 0 0.0 0.0 0.00 0.00 0.00 59 1014.2
20260905235307 29 0 0.0 0.0 0.00 0.00 0.00 61 1014.3
20260905234807 29 0 0.0 0.0 0.00 0.00 0.00 60 1014.3
20260905233806 30 0 0.0 0.0 0.00 0.00 0.00 57 1014.1
20260905233306 30 0 0.0 0.0 0.00 0.00 0.00 56 1013.9
20260905232806 30 0 0.0 0.0 0.00 0.00 0.00 54 1013.9
20260905232306 31 0 0.0 0.0 0.00 0.00 0.00 52 1013.8
20260905231805 31 0 0.0 0.0 0.00 0.00 0.00 51 1013.7
20260905231305 31 0 0.0 0.0 0.00 0.00 0.00 52 1013.7
20260905230805 31 0 0.0 0.0 0.00 0.00 0.00 52 1013.7
20260905230304 31 0 0.0 0.0 0.00 0.00 0.00 52 1013.7
20260905225804 31 0 0.0 0.0 0.00 0.00 0.00 50 1013.6
20260905225305 32 0 0.0 0.0 0.00 0.00 0.00 50 1013.8
20260905224804 31 0 0.0 0.0 0.00 0.00 0.00 52 1013.9
20260905224303 32 0 0.0 0.0 0.00 0.00 0.00 52 1013.9
20260905223803 32 0 0.0 0.0 0.00 0.00 0.00 51 1013.8
20260905223303 32 0 0.0 0.0 0.00 0.00 0.00 51 1013.7
20260905222802 32 0 0.0 0.0 0.00 0.00 0.00 50 1013.7
20260905222305 32 0 0.0 0.0 0.00 0.00 0.00 50 1013.6
20260905221802 32 0 0.0 0.0 0.00 0.00 0.00 54 1013.6
20260905221302 32 0 0.0 0.0 0.00 0.00 0.00 52 1013.6
20260905220301 33 0 0.0 0.0 0.00 0.00 0.00 49 1013.5
20260905215801 32 0 0.0 0.0 0.00 0.00 0.00 51 1013.5
20260905215300 33 0 0.0 0.0 0.00 0.00 0.00 51 1013.4
20260905214800 33 0 0.0 0.0 0.00 0.00 0.00 50 1013.4
20260905214300 34 0 0.0 0.0 0.00 0.00 0.00 45 1013.4
20260905213800 35 0 0.0 0.0 0.00 0.00 0.00 45 1013.3
20260905213259 35 0 0.0 0.0 0.00 0.00 0.00 46 1013.3
20260905212759 33 0 0.0 0.0 0.00 0.00 0.00 47 1013.3
20260905212259 34 0 0.0 0.0 0.00 0.00 0.00 46 1013.3
20260905211758 34 0 0.0 0.0 0.00 0.00 0.00 46 1013.3
20260905211258 33 0 0.0 0.0 0.00 0.00 0.00 46 1013.4
20260905210758 34 0 0.0 0.0 0.00 0.00 0.00 47 1013.4
20260905210257 33 0 0.0 0.0 0.00 0.00 0.00 48 1013.3
20260905205757 34 0 0.0 0.0 0.00 0.00 0.00 45 1013.3
20260905205257 35 0 0.0 0.0 0.00 0.00 0.00 43 1013.3
20260905204757 35 0 0.0 0.0 0.00 0.00 0.00 42 1013.4
20260905204256 35 0 0.0 0.0 0.00 0.00 0.00 44 1013.4
20260905203756 34 0 0.0 0.0 0.00 0.00 0.00 44 1013.5
20260905203256 35 0 0.0 0.0 0.00 0.00 0.00 42 1013.6
20260905202255 35 0 0.0 0.0 0.00 0.00 0.00 43 1013.6
20260905201755 35 0 0.0 0.0 0.00 0.00 0.00 43 1013.6
20260905201254 35 0 0.0 0.0 0.00 0.00 0.00 44 1013.7
20260905200754 35 0 0.0 0.0 0.00 0.00 0.00 45 1013.7
20260905200254 35 0 0.0 0.0 0.00 0.00 0.00 43 1013.7
20260905195754 35 0 0.0 0.0 0.00 0.00 0.00 42 1013.7
20260905195253 35 0 0.0 0.0 0.00 0.00 0.00 42 1013.8
20260905194753 35 0 0.0 0.0 0.00 0.00 0.00 46 1013.7
20260905194253 35 0 0.0 0.0 0.00 0.00 0.00 43 1013.8
20260905193752 35 0 0.0 0.0 0.00 0.00 0.00 43 1013.8
20260905193252 35 0 0.0 0.0 0.00 0.00 0.00 41 1013.8
20260905192752 35 0 0.0 0.0 0.00 0.00 0.00 44 1013.8
20260905192252 35 0 0.0 0.0 0.00 0.00 0.00 40 1013.8
20260905191751 35 0 0.0 0.0 0.00 0.00 0.00 43 1013.8
20260905191251 35 0 0.0 0.0 0.00 0.00 0.00 44 1013.9
20260905190250 34 0 0.0 0.0 0.00 0.00 0.00 46 1013.9
20260905185750 35 0 0.0 0.0 0.00 0.00 0.00 43 1013.9
20260905185250 35 0 0.0 0.0 0.00 0.00 0.00 42 1014.0
20260905184750 35 0 0.0 0.0 0.00 0.00 0.00 45 1014.1
20260905183749 35 0 0.0 0.0 0.00 0.00 0.00 44 1014.1
20260905183249 35 0 0.0 0.0 0.00 0.00 0.00 42 1014.1
20260905182748 35 0 0.0 0.0 0.00 0.00 0.00 43 1014.1
20260905182248 35 0 0.0 0.0 0.00 0.00 0.00 44 1014.2
20260905181748 35 0 0.0 0.0 0.00 0.00 0.00 44 1014.2
20260905181247 35 0 0.0 0.0 0.00 0.00 0.00 46 1014.3
20260905180747 35 0 0.0 0.0 0.00 0.00 0.00 43 1014.4
20260905180247 35 0 0.0 0.0 0.00 0.00 0.00 45 1014.3
20260905175747 34 0 0.0 0.0 0.00 0.00 0.00 46 1014.3
20260905175246 35 0 0.0 0.0 0.00 0.00 0.00 42 1014.3
20260905174246 35 0 0.0 0.0 0.00 0.00 0.00 45 1014.3
20260905173746 35 0 0.0 0.0 0.00 0.00 0.00 44 1014.3
20260905173245 35 0 0.0 0.0 0.00 0.00 0.00 46 1014.4
20260905172745 34 0 0.0 0.0 0.00 0.00 0.00 48 1014.4
20260905172245 35 0 0.0 0.0 0.00 0.00 0.00 43 1014.4
20260905171744 35 0 0.0 0.0 0.00 0.00 0.00 45 1014.4
20260905171244 35 0 0.0 0.0 0.00 0.00 0.00 43 1014.4
20260905170744 35 0 0.0 0.0 0.00 0.00 0.00 46 1014.4
20260905170244 34 0 0.0 0.0 0.00 0.00 0.00 45 1014.4
20260905165243 34 0 0.0 0.0 0.00 0.00 0.00 46 1014.5
20260905164242 34 0 0.0 0.0 0.00 0.00 0.00 46 1014.6
20260905163742 34 0 0.0 0.0 0.00 0.00 0.00 47 1014.6
20260905163242 34 0 0.0 0.0 0.00 0.00 0.00 47 1014.7
20260905162742 34 0 0.0 0.0 0.00 0.00 0.00 49 1014.6
20260905162241 34 0 0.0 0.0 0.00 0.00 0.00 48 1014.7
20260905161741 33 0 0.0 0.0 0.00 0.00 0.00 47 1014.6
20260905161241 33 0 0.0 0.0 0.00 0.00 0.00 49 1014.6
20260905160740 33 0 0.0 0.0 0.00 0.00 0.00 48 1014.6
20260905160240 33 0 0.0 0.0 0.00 0.00 0.00 49 1014.6
20260905155740 33 0 0.0 0.0 0.00 0.00 0.00 51 1014.5
20260905155240 33 0 0.0 0.0 0.00 0.00 0.00 49 1014.6
20260905154739 33 0 0.0 0.0 0.00 0.00 0.00 50 1014.5
20260905154239 33 0 0.0 0.0 0.00 0.00 0.00 48 1014.4
20260905153739 33 0 0.0 0.0 0.00 0.00 0.00 51 1014.4
20260905153238 33 0 0.0 0.0 0.00 0.00 0.00 52 1014.3
20260905152738 32 0 0.0 0.0 0.00 0.00 0.00 53 1014.3
20260905152238 32 0 0.0 0.0 0.00 0.00 0.00 53 1014.3
20260905151738 32 0 0.0 0.0 0.00 0.00 0.00 52 1014.3
20260905151237 32 0 0.0 0.0 0.00 0.00 0.00 53 1014.2
20260905150236 32 0 0.0 0.0 0.00 0.00 0.00 53 1014.1
20260905145736 32 0 0.0 0.0 0.00 0.00 0.00 57 1014.0
20260905144736 32 0 0.0 0.0 0.00 0.00 0.00 55 1014.0
20260905144236 31 0 0.0 0.0 0.00 0.00 0.00 55 1013.9
20260905143735 31 0 0.0 0.0 0.00 0.00 0.00 56 1013.9
20260905143235 31 0 0.0 0.0 0.00 0.00 0.00 54 1013.8
20260905141734 31 0 0.0 0.0 0.00 0.00 0.00 57 1013.7
20260905141234 31 0 0.0 0.0 0.00 0.00 0.00 59 1013.6
20260905140733 30 0 0.0 0.0 0.00 0.00 0.00 60 1013.7
20260905140233 30 0 0.0 0.0 0.00 0.00 0.00 61 1013.7
20260905135733 30 0 0.0 0.0 0.00 0.00 0.00 62 1013.7
20260905135445 29 0 0.0 0.0 0.00 0.00 0.00 63 1013.7
20260905135232 29 0 0.0 0.0 0.00 0.00 0.00 63 1013.7
20260905134001 28 0 0.0 0.0 0.00 0.00 0.00 78 1013.6
20260905133730 28 0 0.0 0.0 0.00 0.00 0.00 78 1013.6
20260905133624 27 0 0.0 0.0 0.00 0.00 0.00 84 1013.6
20260905133230 27 0 0.0 0.0 0.00 0.00 0.00 84 1013.6
20260905132729 27 0 0.0 0.0 0.00 0.00 0.00 85 1013.7
20260905132616 27 0 0.0 0.0 0.00 0.00 0.00 83 1013.8
20260905132229 27 0 0.0 0.0 0.00 0.00 0.00 83 1013.8
20260905131729 27 0 0.0 0.0 0.00 0.00 0.00 82 1013.7
20260905131229 27 0 0.0 0.0 0.00 0.00 0.00 80 1013.6
20260905131129 27 0 0.0 0.0 0.00 0.00 0.00 80 1013.6
20260905130728 27 0 0.0 0.0 0.00 0.00 0.00 80 1013.6
20260905130227 27 0 0.0 0.0 0.00 0.00 0.00 82 1013.5
20260905125727 26 0 0.0 0.0 0.00 0.00 0.00 90 1013.3
20260905125227 25 0 0.0 0.0 0.00 0.00 0.00 88 1013.2
20260905125033 25 0 0.0 0.0 0.00 0.00 0.00 87 1013.2
20260905124725 25 0 0.0 0.0 0.00 0.00 0.00 87 1013.2
20260905124555 25 0 0.0 0.0 0.00 0.00 0.00 87 1013.3
20260905124225 25 0 0.0 0.0 0.00 0.00 0.00 87 1013.3
20260905124152 25 0 0.0 0.0 0.00 0.00 0.00 84 1013.2
20260905123725 25 0 0.0 0.0 0.00 0.00 0.00 84 1013.2
20260905122651 24 0 0.0 0.0 0.00 0.00 0.00 82 1013.0
20260905122224 24 0 0.0 0.0 0.00 0.00 0.00 82 1013.0
20260905121723 24 0 0.0 0.0 0.00 0.00 0.00 80 1013.0
20260905121223 24 0 0.0 0.0 0.00 0.00 0.00 80 1012.9
20260905120222 24 0 0.0 0.0 0.00 0.00 0.00 83 1012.8
20260905115721 25 0 0.0 0.0 0.00 0.00 0.00 85 1012.8
20260905115220 25 0 0.0 0.0 0.00 0.00 0.00 85 1012.8
20260905115028 25 0 0.0 0.0 0.00 0.00 0.00 85 1012.7
20260905114720 25 0 0.0 0.0 0.00 0.00 0.00 85 1012.7
20260905114541 25 0 0.0 0.0 0.00 0.00 0.00 85 1012.7
20260905114220 25 0 0.0 0.0 0.00 0.00 0.00 85 1012.7
20260905113939 25 0 0.0 0.0 0.00 0.00 0.00 85 1012.7
20260905113719 25 0 0.0 0.0 0.00 0.00 0.00 85 1012.7
20260905113220 25 0 0.0 0.0 0.00 0.00 0.00 86 1012.6
20260905112718 25 0 0.0 0.0 0.00 0.00 0.00 92 1012.5
20260905112218 24 0 0.0 0.0 0.00 0.00 0.00 79 1012.5
20260905112153 23 0 0.0 0.0 0.00 0.00 0.00 79 1012.5
20260905111718 23 0 0.0 0.0 0.00 0.00 0.00 79 1012.5
20260905111216 23 0 0.0 0.0 0.00 0.00 0.00 79 1012.5
20260905110717 23 0 0.0 0.0 0.00 0.00 0.00 75 1012.5
20260905110215 23 0 0.0 0.0 0.00 0.00 0.00 77 1012.5
20260905105750 23 0 0.0 0.0 0.00 0.00 0.00 78 1012.5
20260905105714 23 0 0.0 0.0 0.00 0.00 0.00 78 1012.5
20260905105405 23 0 0.0 0.0 0.00 0.00 0.00 78 1012.5
20260905105214 23 0 0.0 0.0 0.00 0.00 0.00 78 1012.5
20260905104714 23 0 0.0 0.0 0.00 0.00 0.00 77 1012.5
20260905104211 23 0 0.0 0.0 0.00 0.00 0.00 76 1012.6
20260905103444 24 0 0.0 0.0 0.00 0.00 0.00 77 1012.6
20260905103210 24 0 0.0 0.0 0.00 0.00 0.00 77 1012.6
20260905102709 24 0 0.0 0.0 0.00 0.00 0.00 77 1012.6
20260905102344 24 0 0.0 0.0 0.00 0.00 0.00 77 1012.6
20260905102209 24 0 0.0 0.0 0.00 0.00 0.00 77 1012.6
20260905101708 24 0 0.0 0.0 0.00 0.00 0.00 77 1012.6
20260905101207 24 0 0.0 0.0 0.00 0.00 0.00 77 1012.6
20260905100707 24 0 0.0 0.0 0.00 0.00 0.00 77 1012.7
20260905100446 24 0 0.0 0.0 0.00 0.00 0.00 77 1012.7
20260905100206 24 0 0.0 0.0 0.00 0.00 0.00 77 1012.7
20260905095826 25 0 0.0 0.0 0.00 0.00 0.00 77 1012.6
20260905095703 25 0 0.0 0.0 0.00 0.00 0.00 77 1012.6
20260905095546 25 0 0.0 0.0 0.00 0.00 0.00 77 1012.7
20260905095203 25 0 0.0 0.0 0.00 0.00 0.00 77 1012.7
20260905094703 25 0 0.0 0.0 0.00 0.00 0.00 77 1012.7
20260905094203 25 0 0.0 0.0 0.00 0.00 0.00 77 1012.7
20260905093702 26 0 0.0 0.0 0.00 0.00 0.00 77 1012.8
20260905093404 26 0 0.0 0.0 0.00 0.00 0.00 80 1012.7
20260905093202 26 0 0.0 0.0 0.00 0.00 0.00 80 1012.7
20260905092702 25 0 0.0 0.0 0.00 0.00 0.00 86 1012.8
20260905092516 25 0 0.0 0.0 0.00 0.00 0.00 71 1012.8
20260905092201 25 0 0.0 0.0 0.00 0.00 0.00 71 1012.8
20260905091701 25 0 0.0 0.0 0.00 0.00 0.00 71 1012.8
20260905091200 25 0 0.0 0.0 0.00 0.00 0.00 71 1012.8
20260905090700 25 0 0.0 0.0 0.00 0.00 0.00 71 1012.8
20260905090334 26 0 0.0 0.0 0.00 0.00 0.00 73 1012.8
20260905090200 26 0 0.0 0.0 0.00 0.00 0.00 72 1012.9
20260905085700 26 0 0.0 0.0 0.00 0.00 0.00 72 1012.9
20260905085159 26 0 0.0 0.0 0.00 0.00 0.00 73 1012.8
20260905084158 26 0 0.0 0.0 0.00 0.00 0.00 82 1012.8
20260905083658 25 0 0.0 0.0 0.00 0.00 0.00 80 1012.7
20260905083158 25 0 0.0 0.0 0.00 0.00 0.00 79 1012.7
20260905082658 25 0 0.0 0.0 0.00 0.00 0.00 76 1012.7
20260905082157 25 0 0.0 0.0 0.00 0.00 0.00 77 1012.7
20260905081656 25 0 0.0 0.0 0.00 0.00 0.00 75 1012.7
20260905081156 25 0 0.0 0.0 0.00 0.00 0.00 73 1012.6
20260905080655 25 0 0.0 0.0 0.00 0.00 0.00 75 1012.7
20260905080155 25 0 0.0 0.0 0.00 0.00 0.00 77 1012.9
20260905080152 26 0 0.0 0.0 0.00 0.00 0.00 76 1012.9
20260905075655 26 0 0.0 0.0 0.00 0.00 0.00 76 1012.9
20260905075549 26 0 0.0 0.0 0.00 0.00 0.00 75 1013.0
20260905075155 26 0 0.0 0.0 0.00 0.00 0.00 75 1013.0
20260905074654 26 0 0.0 0.0 0.00 0.00 0.00 74 1013.0
20260905074154 26 0 0.0 0.0 0.00 0.00 0.00 74 1012.9
20260905073654 26 0 0.0 0.0 0.00 0.00 0.00 77 1012.9
20260905073153 26 0 0.0 0.0 0.00 0.00 0.00 82 1013.0
20260905072653 25 0 0.0 0.0 0.00 0.00 0.00 73 1013.0
20260905072153 25 0 0.0 0.0 0.00 0.00 0.00 74 1013.0
20260905071653 25 0 0.0 0.0 0.00 0.00 0.00 75 1013.0
20260905071152 25 0 0.0 0.0 0.00 0.00 0.00 76 1013.0
20260905070652 25 0 0.0 0.0 0.00 0.00 0.00 76 1013.0
20260905070152 25 0 0.0 0.0 0.00 0.00 0.00 76 1013.1
20260905065651 25 0 0.0 0.0 0.00 0.00 0.00 75 1013.1
20260905065151 25 0 0.0 0.0 0.00 0.00 0.00 75 1013.1
20260905064651 25 0 0.0 0.0 0.00 0.00 0.00 75 1013.1
20260905064151 26 0 0.0 0.0 0.00 0.00 0.00 76 1013.2
20260905063650 26 0 0.0 0.0 0.00 0.00 0.00 78 1013.2
20260905063149 26 0 0.0 0.0 0.00 0.00 0.00 81 1013.2
20260905062649 26 0 0.0 0.0 0.00 0.00 0.00 85 1013.2
20260905062149 25 0 0.0 0.0 0.00 0.00 0.00 74 1013.2
20260905061650 25 0 0.0 0.0 0.00 0.00 0.00 75 1013.3
20260905061147 25 0 0.0 0.0 0.00 0.00 0.00 74 1013.2
20260905060647 25 0 0.0 0.0 0.00 0.00 0.00 71 1013.2
20260905060147 26 0 0.0 0.0 0.00 0.00 0.00 70 1013.2
20260905055646 26 0 0.0 0.0 0.00 0.00 0.00 72 1013.2
20260905055146 26 0 0.0 0.0 0.00 0.00 0.00 78 1013.3
20260905054646 26 0 0.0 0.0 0.00 0.00 0.00 80 1013.4
20260905054146 25 0 0.0 0.0 0.00 0.00 0.00 66 1013.4
20260905053645 25 0 0.0 0.0 0.00 0.00 0.00 66 1013.5
20260905053145 25 0 0.0 0.0 0.00 0.00 0.00 66 1013.5
20260905052645 25 0 0.0 0.0 0.00 0.00 0.00 66 1013.5
20260905052144 25 0 0.0 0.0 0.00 0.00 0.00 67 1013.4
20260905051644 26 0 0.0 0.0 0.00 0.00 0.00 66 1013.5
20260905051144 26 0 0.0 0.0 0.00 0.00 0.00 66 1013.4
20260905050644 26 0 0.0 0.0 0.00 0.00 0.00 65 1013.4
20260905050143 26 0 0.0 0.0 0.00 0.00 0.00 67 1013.4
20260905045643 26 0 0.0 0.0 0.00 0.00 0.00 66 1013.4
20260905045143 26 0 0.0 0.0 0.00 0.00 0.00 65 1013.3
20260905044643 26 0 0.0 0.0 0.00 0.00 0.00 64 1013.4
20260905044142 26 0 0.0 0.0 0.00 0.00 0.00 65 1013.5
20260905043642 26 0 0.0 0.0 0.00 0.00 0.00 65 1013.5
20260905043142 26 0 0.0 0.0 0.00 0.00 0.00 65 1013.5
20260905042642 26 0 0.0 0.0 0.00 0.00 0.00 66 1013.5
20260905042141 26 0 0.0 0.0 0.00 0.00 0.00 66 1013.5
20260905041641 27 0 0.0 0.0 0.00 0.00 0.00 69 1013.6
20260905041140 27 0 0.0 0.0 0.00 0.00 0.00 71 1013.6
20260905040640 26 0 0.0 0.0 0.00 0.00 0.00 68 1013.7
20260905040139 27 0 0.0 0.0 0.00 0.00 0.00 67 1013.6
20260905035639 26 0 0.0 0.0 0.00 0.00 0.00 68 1013.5
20260905035139 27 0 0.0 0.0 0.00 0.00 0.00 67 1013.4
20260905035126 27 0 0.0 0.0 0.00 0.00 0.00 69 1013.3
20260905034638 26 0 0.0 0.0 0.00 0.00 0.00 68 1013.4
20260905034138 27 0 0.0 0.0 0.00 0.00 0.00 69 1013.3
20260905033638 27 0 0.0 0.0 0.00 0.00 0.00 69 1013.3
20260905033137 27 0 0.0 0.0 0.00 0.00 0.00 69 1013.3
20260905032637 27 0 0.0 0.0 0.00 0.00 0.00 67 1013.3
20260905032137 27 0 0.0 0.0 0.00 0.00 0.00 65 1013.2
20260905031637 27 0 0.0 0.0 0.00 0.00 0.00 64 1013.4
20260905031136 27 0 0.0 0.0 0.00 0.00 0.00 60 1013.4
20260905030636 27 0 0.0 0.0 0.00 0.00 0.00 63 1013.4
20260905030136 27 0 0.0 0.0 0.00 0.00 0.00 63 1013.4
20260905025636 27 0 0.0 0.0 0.00 0.00 0.00 66 1013.4
20260905025135 27 0 0.0 0.0 0.00 0.00 0.00 68 1013.5
20260905024635 27 0 0.0 0.0 0.00 0.00 0.00 67 1013.4
20260905024135 28 0 0.0 0.0 0.00 0.00 0.00 67 1013.3
20260905023635 28 0 0.0 0.0 0.00 0.00 0.00 66 1013.2
20260905023134 28 0 0.0 0.0 0.00 0.00 0.00 64 1013.1